"Pseudo-MPEC" for P12oEGh

Created 2026 Jul 25 20:35:07 UT using Find_Orb

Click here for an explanation of pseudo-MPECs

 
 Astrometry: 
     P12oEGh*0C2026 07 25.56987423 03 16.206-05 36 52.83   ~7PKZ 21.41wXNEOCPF51
     P12oEGh 0C2026 07 25.58051023 03 14.536-05 37 01.48   ~7PKZ 22.21wXNEOCPF51
     P12oEGh 0C2026 07 25.59112623 03 12.858-05 37 10.23   ~7PKZ 21.62wXNEOCPF51
     P12oEGh 0C2026 07 25.60192423 03 11.142-05 37 19.05   ~7PKZ 21.96wXNEOCPF51

Station data:
(F51) Pan-STARRS 1, Haleakala  (N20.707234 W156.255910)  US/Hawaii.
   Observers J. Herman, T. Lowe, P. Minguez, A. Schultz, I. Smith. Measurers
   K. Chambers, T. de Boer, J. Fairlamb, H. Gao, M. Huber, C.-C. Lin, E.
   Magnier, Y. Ramanjooloo, R. Wainscoat, R. Weryk. 1.8-m Ritchey-Chrétien +
   CCD.

Orbital elements:  P12oEGh
   Perihelion 2026 Mar 11.260496 +/- 141 TT =  6:15:06.8 (JD 2461110.760496)
Epoch 2026 Jul 26.0 TT = JDT 2461247.5   Earth MOID: 0.0377   Ve: 0.0112
M 149.879726990 +/- 110             Me: 0.0105   Ma: 0.0184      AutoNEOCP
n   1.096096759 +/- 0.637           Peri.  184.410174 +/- 70
a   0.931615674 +/- 0.361           Node   320.517963 +/- 60
e   0.93311896 +/- 0.224            Incl.    8.383179 +/- 80
P   0.899/328.432d         H 19.62  G  0.15   U 12.5  SR
q 0.062307418 +/- 0.726    Q 1.800923929 +/- 18.4         (J2000 ecliptic)
From 4 observations 2026 July 25 (46.2 min); mean residual 0".06
Residuals in arcseconds: 
260725 F51  .08-  .02-    260725 F51  .07+  .02-    
260725 F51  .08+  .04+    260725 F51  .07-  .00     

Ephemerides (geocentric):
Date (UTC) HH   RA             Dec           delta  r     elong  mag " sig PA
---- --------  ------------   ------------  ------ ------ -----  --- --------
2026 07 25 21  23 02 29.031   -05 40 59.68  .87772 1.7683 138.0 21.7  369 101
2026 07 25 22  23 02 22.542   -05 41 34.17  .87739 1.7684 138.1 21.7  470  98
2026 07 25 23  23 02 16.045   -05 42 08.72  .87707 1.7685 138.1 21.7  614  96
2026 07 26 00  23 02 09.538   -05 42 43.31  .87675 1.7686 138.2 21.7  844  94
2026 07 26 01  23 02 03.023   -05 43 17.95  .87642 1.7687 138.3 21.7 1282  93
2026 07 26 02  23 01 56.499   -05 43 52.63  .87610 1.7688 138.3 21.6 2473  91
2026 07 26 03  23 01 49.966   -05 44 27.35  .87578 1.7689 138.4 21.6 283'  91
2026 07 26 04  23 01 43.424   -05 45 02.13  .87546 1.7690 138.5 21.6  18d  94
2026 07 26 05  23 01 36.873   -05 45 36.94  .87514 1.7691 138.5 21.6  19d  86
2026 07 26 06  23 01 30.314   -05 46 11.81  .87482 1.7692 138.6 21.6  19d  86
2026 07 26 07  23 01 23.745   -05 46 46.71  .87450 1.7693 138.7 21.6  18d  86
2026 07 26 08  23 01 17.168   -05 47 21.67  .87418 1.7694 138.8 21.6  18d  86
2026 07 26 09  23 01 10.581   -05 47 56.66  .87386 1.7695 138.8 21.6  18d  86
2026 07 26 10  23 01 03.986   -05 48 31.71  .87354 1.7696 138.9 21.6  18d  86
2026 07 26 11  23 00 57.382   -05 49 06.80  .87323 1.7697 139.0 21.6  18d  86
2026 07 26 12  23 00 50.770   -05 49 41.93  .87291 1.7698 139.0 21.6  18d  86
2026 07 26 13  23 00 44.148   -05 50 17.11  .87259 1.7699 139.1 21.6  18d  86
2026 07 26 14  23 00 37.517   -05 50 52.33  .87227 1.7699 139.2 21.6  18d  86
2026 07 26 15  23 00 30.878   -05 51 27.60  .87196 1.7700 139.2 21.6  18d  86
2026 07 26 16  23 00 24.230   -05 52 02.92  .87164 1.7701 139.3 21.6  18d  86
2026 07 26 17  23 00 17.572   -05 52 38.27  .87133 1.7702 139.4 21.6  18d  86
2026 07 26 18  23 00 10.906   -05 53 13.68  .87101 1.7703 139.4 21.6  18d  86
2026 07 26 19  23 00 04.232   -05 53 49.13  .87070 1.7704 139.5 21.6  18d  86
2026 07 26 20  22 59 57.548   -05 54 24.62  .87038 1.7705 139.6 21.6  20d  95
2026 07 26 21  22 59 50.855   -05 55 00.16  .87007 1.7706 139.6 21.6  26d  87
2026 07 26 22  22 59 44.154   -05 55 35.74  .86976 1.7707 139.7 21.6  26d  87
2026 07 26 23  22 59 37.444   -05 56 11.36  .86945 1.7708 139.8 21.6  26d  86
2026 07 27 00  22 59 30.725   -05 56 47.04  .86913 1.7709 139.9 21.6  26d  86
2026 07 27 01  22 59 23.997   -05 57 22.75  .86882 1.7710 139.9 21.6  26d  86
2026 07 27 02  22 59 17.260   -05 57 58.51  .86851 1.7711 140.0 21.6  26d  86
2026 07 27 03  22 59 10.514   -05 58 34.32  .86820 1.7712 140.1 21.6  26d  86
2026 07 27 04  22 59 03.760   -05 59 10.17  .86789 1.7713 140.1 21.6  26d  86
2026 07 27 05  22 58 56.997   -05 59 46.06  .86758 1.7714 140.2 21.6  26d  86
2026 07 27 06  22 58 50.225   -06 00 22.00  .86727 1.7715 140.3 21.6  26d  86
2026 07 27 07  22 58 43.444   -06 00 57.98  .86696 1.7716 140.3 21.6  26d  86
2026 07 27 08  22 58 36.654   -06 01 34.01  .86666 1.7717 140.4 21.6  26d  86
2026 07 27 09  22 58 29.855   -06 02 10.08  .86635 1.7718 140.5 21.6  26d  86
2026 07 27 10  22 58 23.048   -06 02 46.20  .86604 1.7718 140.6 21.6  26d  86
2026 07 27 11  22 58 16.232   -06 03 22.35  .86573 1.7719 140.6 21.6  26d  86
2026 07 27 12  22 58 09.407   -06 03 58.56  .86543 1.7720 140.7 21.6  26d  86
2026 07 27 13  22 58 02.573   -06 04 34.81  .86512 1.7721 140.8 21.6  26d  86
2026 07 27 14  22 57 55.730   -06 05 11.10  .86482 1.7722 140.8 21.6  26d  86
2026 07 27 15  22 57 48.879   -06 05 47.43  .86451 1.7723 140.9 21.6  26d  86
2026 07 27 16  22 57 42.018   -06 06 23.81  .86421 1.7724 141.0 21.6  26d  86
2026 07 27 17  22 57 35.149   -06 07 00.23  .86390 1.7725 141.0 21.6  26d  86
2026 07 27 18  22 57 28.271   -06 07 36.70  .86360 1.7726 141.1 21.6  26d  86
2026 07 27 19  22 57 21.384   -06 08 13.21  .86330 1.7727 141.2 21.6  26d  86
2026 07 27 20  22 57 14.489   -06 08 49.77  .86299 1.7728 141.3 21.6  26d  86